TimeEST,TemperatureF,Dew PointF,Humidity,Sea Level PressureIn,VisibilityMPH,Wind Direction,Wind SpeedMPH,Gust SpeedMPH,PrecipitationIn,Events,Conditions,WindDirDegrees,DateUTC
12:15 AM,27.1,14.9,60,30.13,10.0,Calm,Calm,-,N/A,,Scattered Clouds,0,2012-11-06 05:15:00
12:35 AM,28.0,15.6,60,30.14,10.0,WNW,3.5,-,N/A,,Clear,290,2012-11-06 05:35:00
12:55 AM,27.5,15.6,61,30.14,10.0,West,5.8,-,N/A,,Scattered Clouds,280,2012-11-06 05:55:00
1:15 AM,27.1,15.8,62,30.14,10.0,WNW,3.5,-,N/A,,Scattered Clouds,290,2012-11-06 06:15:00
1:35 AM,27.1,16.0,63,30.14,10.0,Calm,Calm,-,N/A,,Clear,0,2012-11-06 06:35:00
1:55 AM,27.1,16.5,64,30.15,10.0,West,3.5,-,N/A,,Clear,280,2012-11-06 06:55:00
2:15 AM,27.1,16.7,65,30.15,10.0,West,4.6,-,N/A,,Clear,280,2012-11-06 07:15:00
2:35 AM,27.1,16.7,65,30.16,10.0,WNW,3.5,-,N/A,,Clear,290,2012-11-06 07:35:00
2:55 AM,27.1,16.7,65,30.16,10.0,WNW,3.5,-,N/A,,Clear,290,2012-11-06 07:55:00
3:15 AM,27.1,16.7,65,30.16,10.0,Calm,Calm,-,N/A,,Clear,0,2012-11-06 08:15:00
3:35 AM,25.7,15.4,65,30.17,10.0,Calm,Calm,-,N/A,,Clear,0,2012-11-06 08:35:00
3:55 AM,24.8,14.5,65,30.17,10.0,Calm,Calm,-,N/A,,Clear,0,2012-11-06 08:55:00
4:15 AM,24.6,15.3,68,30.18,10.0,Calm,Calm,-,N/A,,Clear,0,2012-11-06 09:15:00
4:35 AM,24.4,16.0,70,30.18,10.0,Calm,Calm,-,N/A,,Clear,0,2012-11-06 09:35:00
4:55 AM,24.6,15.6,69,30.18,10.0,Calm,Calm,-,N/A,,Clear,0,2012-11-06 09:55:00
5:15 AM,23.5,15.4,71,30.19,10.0,Calm,Calm,-,N/A,,Clear,0,2012-11-06 10:15:00
5:35 AM,21.2,15.1,77,30.19,10.0,Calm,Calm,-,N/A,,Clear,0,2012-11-06 10:35:00
5:55 AM,20.5,14.9,79,30.20,10.0,Calm,Calm,-,N/A,,Clear,0,2012-11-06 10:55:00
6:35 AM,19.8,15.1,82,30.20,10.0,Calm,Calm,-,N/A,,Clear,0,2012-11-06 11:35:00
6:55 AM,19.2,14.9,83,30.20,10.0,Calm,Calm,-,N/A,,Clear,0,2012-11-06 11:55:00
7:15 AM,19.0,15.6,87,30.20,10.0,Calm,Calm,-,N/A,,Clear,0,2012-11-06 12:15:00
7:35 AM,20.5,16.9,86,30.21,10.0,Calm,Calm,-,N/A,,Clear,0,2012-11-06 12:35:00
7:55 AM,23.7,20.1,86,30.20,10.0,Calm,Calm,-,N/A,,Clear,0,2012-11-06 12:55:00
8:15 AM,27.1,21.2,78,30.21,10.0,Calm,Calm,-,N/A,,Clear,0,2012-11-06 13:15:00
8:35 AM,29.5,20.1,68,30.22,10.0,Calm,Calm,-,N/A,,Clear,0,2012-11-06 13:35:00
8:55 AM,29.7,18.0,62,30.22,10.0,Calm,Calm,-,N/A,,Clear,0,2012-11-06 13:55:00
9:15 AM,31.8,19.0,59,30.22,10.0,Calm,Calm,-,N/A,,Clear,0,2012-11-06 14:15:00
9:35 AM,32.0,18.3,57,30.22,10.0,Calm,Calm,-,N/A,,Clear,0,2012-11-06 14:35:00
9:55 AM,32.0,17.8,56,30.22,10.0,WNW,3.5,-,N/A,,Clear,300,2012-11-06 14:55:00
10:15 AM,32.0,15.6,51,30.22,10.0,WNW,3.5,-,N/A,,Clear,300,2012-11-06 15:15:00
10:35 AM,33.8,16.9,50,30.22,10.0,Calm,Calm,-,N/A,,Clear,0,2012-11-06 15:35:00
10:55 AM,34.3,16.9,49,30.23,10.0,North,3.5,-,N/A,,Clear,360,2012-11-06 15:55:00
11:15 AM,34.3,16.7,49,30.23,10.0,Calm,Calm,-,N/A,,Clear,0,2012-11-06 16:15:00
11:35 AM,32.0,15.8,51,30.23,10.0,Calm,Calm,-,N/A,,Scattered Clouds,0,2012-11-06 16:35:00
11:55 AM,34.5,16.0,47,30.22,10.0,North,3.5,-,N/A,,Mostly Cloudy,360,2012-11-06 16:55:00
12:15 PM,36.9,14.2,40,30.21,10.0,WSW,4.6,-,N/A,,Overcast,240,2012-11-06 17:15:00
12:35 PM,36.9,14.0,39,30.21,10.0,Calm,Calm,-,N/A,,Overcast,0,2012-11-06 17:35:00
12:55 PM,36.9,13.8,39,30.21,10.0,South,4.6,-,N/A,,Overcast,190,2012-11-06 17:55:00
1:15 PM,37.9,15.8,41,30.20,10.0,North,9.2,-,N/A,,Overcast,360,2012-11-06 18:15:00
1:35 PM,36.9,15.4,42,30.20,10.0,Calm,Calm,-,N/A,,Overcast,0,2012-11-06 18:35:00
1:55 PM,36.9,14.0,39,30.20,10.0,WNW,5.8,-,N/A,,Scattered Clouds,290,2012-11-06 18:55:00
2:15 PM,36.9,14.4,40,30.20,10.0,South,8.1,-,N/A,,Scattered Clouds,180,2012-11-06 19:15:00
2:35 PM,36.9,14.0,39,30.20,10.0,Calm,Calm,-,N/A,,Scattered Clouds,0,2012-11-06 19:35:00
2:55 PM,36.9,14.4,40,30.20,10.0,WSW,4.6,-,N/A,,Clear,240,2012-11-06 19:55:00
3:15 PM,36.9,14.7,40,30.20,10.0,SE,3.5,-,N/A,,Clear,130,2012-11-06 20:15:00
3:35 PM,36.9,14.7,40,30.20,10.0,Calm,Calm,-,N/A,,Clear,0,2012-11-06 20:35:00
3:55 PM,34.3,13.8,43,30.20,10.0,Calm,Calm,-,N/A,,Clear,0,2012-11-06 20:55:00
4:15 PM,34.5,13.5,42,30.20,10.0,Calm,Calm,-,N/A,,Clear,0,2012-11-06 21:15:00
4:35 PM,32.0,14.7,49,30.20,10.0,SSE,3.5,-,N/A,,Clear,160,2012-11-06 21:35:00
5:15 PM,30.7,16.0,54,30.21,10.0,Calm,Calm,-,N/A,,Clear,0,2012-11-06 22:15:00
5:35 PM,28.2,15.4,59,30.21,10.0,Calm,Calm,-,N/A,,Clear,0,2012-11-06 22:35:00
5:55 PM,27.1,16.7,65,30.21,10.0,Calm,Calm,-,N/A,,Clear,0,2012-11-06 22:55:00
6:15 PM,27.1,17.6,67,30.21,10.0,Calm,Calm,-,N/A,,Clear,0,2012-11-06 23:15:00
6:35 PM,27.1,18.3,69,30.21,10.0,Calm,Calm,-,N/A,,Clear,0,2012-11-06 23:35:00
6:55 PM,27.1,19.4,73,30.21,10.0,ENE,3.5,-,N/A,,Clear,70,2012-11-06 23:55:00
7:15 PM,24.6,18.1,76,30.21,10.0,East,4.6,-,N/A,,Clear,80,2012-11-07 00:15:00
7:35 PM,27.1,17.1,66,30.21,10.0,ENE,3.5,-,N/A,,Clear,70,2012-11-07 00:35:00
7:55 PM,26.6,17.4,68,30.21,10.0,Calm,Calm,-,N/A,,Clear,0,2012-11-07 00:55:00
8:15 PM,26.1,19.0,75,30.22,10.0,Calm,Calm,-,N/A,,Clear,0,2012-11-07 01:15:00
8:35 PM,26.6,19.6,75,30.22,10.0,East,3.5,-,N/A,,Clear,100,2012-11-07 01:35:00
8:55 PM,24.6,18.5,78,30.22,10.0,ESE,4.6,-,N/A,,Clear,110,2012-11-07 01:55:00
9:15 PM,24.6,18.5,78,30.23,10.0,ESE,4.6,-,N/A,,Clear,110,2012-11-07 02:15:00
9:35 PM,24.6,18.7,78,30.23,10.0,East,4.6,-,N/A,,Clear,100,2012-11-07 02:35:00
9:55 PM,24.6,18.5,78,30.23,10.0,ESE,4.6,-,N/A,,Clear,110,2012-11-07 02:55:00
10:15 PM,24.6,18.9,79,30.22,10.0,East,3.5,-,N/A,,Clear,100,2012-11-07 03:15:00
10:35 PM,24.6,19.0,79,30.22,10.0,East,3.5,-,N/A,,Clear,100,2012-11-07 03:35:00
10:55 PM,24.3,18.9,80,30.22,10.0,East,3.5,-,N/A,,Clear,90,2012-11-07 03:55:00
11:15 PM,22.1,17.4,82,30.22,10.0,East,3.5,-,N/A,,Clear,100,2012-11-07 04:15:00
11:35 PM,22.1,17.6,83,30.22,10.0,East,4.6,-,N/A,,Clear,100,2012-11-07 04:35:00